EW1970 Weather Reports


time (UTC)temp
C
wind
direction
speed
KPH
gust
KPH
rain 1hr
cm
rain 24hr
cm
rain mn
cm
humidity
%
barometer
mb
20260903123037 26 194 1.6 4.8 0.00 0.00 0.00 85 1014.1
20260903121515 26 225 1.6 12.9 0.00 0.00 0.00 85 1014.1
20260903120020 26 117 0.0 8.0 0.00 0.00 0.00 85 1014.1
20260903114531 26 309 1.6 4.8 0.00 0.00 0.00 85 1014.0
20260903113029 26 103 0.0 16.1 0.00 0.00 0.00 84 1014.0
20260903111533 26 172 0.0 14.5 0.00 0.00 0.00 84 1014.0
20260903110019 26 247 1.6 12.9 0.00 0.00 0.00 84 1013.9
20260903104526 26 277 1.6 11.3 0.00 0.00 0.00 84 1013.9
20260903103027 26 237 1.6 6.4 0.00 0.00 0.00 85 1013.7
20260903101511 26 190 1.6 9.7 0.00 0.00 0.00 85 1013.7
20260903100028 26 88 1.6 14.5 0.00 0.00 0.00 84 1013.6
20260903094528 26 283 1.6 9.7 0.00 0.00 0.00 84 1013.7
20260903093010 26 235 0.0 6.4 0.00 0.00 0.00 83 1013.8
20260903091507 26 228 1.6 9.7 0.00 0.00 0.00 83 1013.9
20260903090019 26 122 3.2 9.7 0.00 0.00 0.00 83 1013.9
20260903084529 26 119 1.6 9.7 0.00 0.00 0.00 83 1014.0
20260903083030 26 229 1.6 4.8 0.00 0.00 0.00 83 1014.0
20260903081509 26 219 1.6 9.7 0.00 0.00 0.00 82 1014.0
20260903080011 26 265 0.0 4.8 0.00 0.00 0.00 82 1014.0
20260903074518 26 298 0.0 6.4 0.00 0.00 0.00 81 1014.0
20260903073026 26 170 3.2 11.3 0.00 0.00 0.00 80 1014.1
20260903071528 26 247 1.6 6.4 0.00 0.00 0.00 79 1014.2
20260903070011 27 188 0.0 8.0 0.00 0.00 0.00 77 1014.4
20260903064516 27 145 0.0 6.4 0.00 0.00 0.00 77 1014.4
20260903063021 27 123 0.0 3.2 0.00 0.00 0.00 76 1014.5
20260903061528 27 51 0.0 3.2 0.00 0.00 0.00 76 1014.5
20260903060032 26 157 0.0 8.0 0.00 0.00 0.00 77 1014.5
20260903054522 26 156 0.0 9.7 0.00 0.00 0.00 78 1014.5
20260903053020 26 123 1.6 11.3 0.00 0.00 0.00 78 1014.3
20260903051528 26 130 0.0 6.4 0.00 0.00 0.00 78 1014.5
20260903050029 26 79 1.6 6.4 0.00 0.00 0.00 78 1014.3
20260903044535 26 38 0.0 8.0 0.00 0.00 0.00 77 1014.3
20260903043017 27 311 0.0 9.7 0.00 0.00 0.00 76 1014.3
20260903041524 27 161 0.0 12.9 0.00 0.00 0.00 74 1014.3
20260903040031 27 238 0.0 3.2 0.00 0.00 0.00 72 1014.3
20260903034536 28 123 0.0 9.7 0.00 0.00 0.00 69 1014.3
20260903033038 28 142 1.6 11.3 0.00 0.00 0.00 65 1014.4
20260903031522 29 169 1.6 8.0 0.00 0.00 0.00 62 1014.0
20260903030030 30 90 0.0 4.8 0.00 0.00 0.00 59 1013.7
20260903024531 30 148 3.2 14.5 0.00 0.00 0.00 61 1013.3
20260903023031 29 91 0.0 0.0 0.00 0.00 0.00 62 1012.8
20260903021532 30 64 0.0 1.6 0.00 0.00 0.00 60 1012.6
20260903020026 30 38 0.0 1.6 0.00 0.00 0.00 59 1012.3
20260903014503 30 185 0.0 3.2 0.00 0.00 0.00 58 1012.1
20260903013012 30 163 0.0 1.6 0.00 0.00 0.00 57 1012.1
20260903011515 30 162 0.0 3.2 0.00 0.00 0.00 57 1012.1
20260903010025 31 28 0.0 3.2 0.00 0.00 0.00 58 1012.0
20260903004535 31 142 0.0 3.2 0.00 0.00 0.00 58 1012.0
20260903003009 31 122 0.0 4.8 0.00 0.00 0.00 56 1012.1
20260903001516 32 157 0.0 6.4 0.00 0.00 0.00 53 1012.0
20260903000020 33 84 0.0 4.8 0.00 0.00 0.00 51 1012.3
20260902234530 33 209 1.6 6.4 0.00 0.00 0.00 51 1012.2
20260902233029 33 23 0.0 3.2 0.00 0.00 0.00 50 1011.8
20260902231517 34 310 3.2 11.3 0.00 0.00 0.00 45 1011.8
20260902230016 33 76 0.0 3.2 0.00 0.00 0.00 50 1011.8
20260902224527 34 78 0.0 3.2 0.00 0.00 0.00 50 1011.6
20260902223032 33 68 0.0 3.2 0.00 0.00 0.00 56 1011.6
20260902221534 32 348 0.0 0.0 0.00 0.00 0.00 58 1011.7
20260902220018 32 348 0.0 0.0 0.00 0.00 0.00 57 1011.8
20260902214528 33 348 0.0 0.0 0.00 0.00 0.00 49 1011.8
20260902213030 33 348 0.0 1.6 0.00 0.00 0.00 49 1011.9
20260902211531 34 317 0.0 3.2 0.00 0.00 0.00 48 1012.0
20260902210049 35 333 0.0 3.2 0.00 0.00 0.00 45 1012.1
20260902204516 35 323 0.0 3.2 0.00 0.00 0.00 44 1012.3
20260902203024 35 28 0.0 9.7 0.00 0.00 0.00 44 1012.6
20260902201537 35 211 0.0 4.8 0.00 0.00 0.00 40 1012.8
20260902200034 38 149 1.6 4.8 0.00 0.00 0.00 36 1013.0
20260902194538 38 219 3.2 12.9 0.00 0.00 0.00 36 1013.3
20260902193035 38 225 0.0 9.7 0.00 0.00 0.00 38 1013.6
20260902191529 38 111 1.6 4.8 0.00 0.00 0.00 37 1013.8
20260902190037 37 86 1.6 6.4 0.00 0.00 0.00 37 1014.1
20260902184512 36 281 0.0 4.8 0.00 0.00 0.00 39 1014.4
20260902183018 38 302 1.6 11.3 0.00 0.00 0.00 37 1014.6
20260902181513 38 309 1.6 8.0 0.00 0.00 0.00 38 1014.9
20260902180007 37 158 1.6 9.7 0.00 0.00 0.00 41 1015.3
20260902174509 37 327 0.0 9.7 0.00 0.00 0.00 40 1015.6
20260902173017 36 244 1.6 6.4 0.00 0.00 0.00 41 1015.9
20260902171521 36 36 3.2 12.9 0.00 0.00 0.00 42 1016.0
20260902170017 36 249 1.6 6.4 0.00 0.00 0.00 45 1016.2
20260902164507 35 248 0.0 6.4 0.00 0.00 0.00 46 1016.3
20260902163012 34 232 1.6 9.7 0.00 0.00 0.00 46 1016.4
20260902161524 33 296 4.8 9.7 0.00 0.00 0.00 48 1016.4
20260902160022 33 215 4.8 12.9 0.00 0.00 0.00 49 1016.3
20260902154528 32 237 3.2 11.3 0.00 0.00 0.00 53 1016.4
20260902153015 31 227 1.6 6.4 0.00 0.00 0.00 57 1016.4
20260902151520 30 290 4.8 11.3 0.00 0.00 0.00 59 1016.5
20260902150027 30 270 0.0 4.8 0.00 0.00 0.00 65 1016.5
20260902144534 28 312 1.6 8.0 0.00 0.00 0.00 66 1016.5
20260902143028 28 219 1.6 6.4 0.00 0.00 0.00 69 1016.6
20260902141518 28 249 1.6 11.3 0.00 0.00 0.00 72 1016.5
20260902140033 27 261 3.2 12.9 0.00 0.00 0.00 74 1016.3
20260902134534 26 279 0.0 3.2 0.00 0.00 0.00 78 1016.2
20260902133029 25 223 0.0 1.6 0.00 0.00 0.00 83 1016.2
20260902131542 24 252 0.0 0.0 0.00 0.00 0.00 83 1016.1
20260902130020 23 252 0.0 0.0 0.00 0.00 0.00 84 1016.0
20260902124527 23 252 0.0 0.0 0.00 0.00 0.00 84 1015.8